Voltar ao catálogo

STARLINK-4533

AtivoComunicaçõesVLEO
NORAD 53406·PAYLOAD·🇺🇸 United States

Lançado Aug 10, 2022 de Cape Canaveral Space Force Station

Loading…

Próximas Passagens (próximas 24 horas)

TLE

AtualizadoSource: CelesTrak SupGP

Época: Sep 14, 2026, 22:11 UTC

1 53406C 22097U   26257.92479167 -.00034943  00000+0 -11238-2 0  2573
2 53406  53.1597 332.7603 0001105  78.7231 152.3548 15.31715316    11

Acompanhe STARLINK-4533 em tempo real com AllMySat

Download on the App Store